{"data":{"norad_id":65093,"intl_designator":"2025-167R","name":"STARLINK-34266","alt_names":[],"object_type":"PAYLOAD","status":"ACTIVE","operator":null,"country":"US","launch_date":"2025-08-04","launch_site_code":"AFETR","launch_vehicle":null,"mission":null,"orbit_class":"UNKNOWN","rcs_meters":null,"size_class":null,"mass_kg":null,"dimensions":null,"purposes":["comms"],"wikipedia_slug":null,"has_3d_model":false,"image_url":null,"decayed_at":null,"tle_current":{"epoch":"2026-05-25T02:26:31.416864Z","epoch_age_seconds":66324,"freshness":"FRESH","line1":"1 65093U 25167R   26145.10175251  .00030188  00000+0  69999-3 0  9998","line2":"2 65093  53.1597  29.2635 0001047  99.5889 260.5235 15.42178873 45213","mean_motion":15.42178873,"eccentricity":0.0001047,"inclination_deg":53.1597,"raan_deg":29.2635,"arg_perigee_deg":99.5889,"mean_anomaly_deg":260.5235,"bstar":0.00069999,"rev_number":4521,"period_min":93.374382518856,"perigee_km":438.96620393554,"apogee_km":440.3938548215,"semimajor_km":6817.8170293785,"source":"CELESTRAK","updated_at":"2026-05-25T13:38:20.685466Z"}}}